Вернуться в каталог

STARLINK-32163

АктивенСвязьVLEO
NORAD 60262·PAYLOAD·🇺🇸 United States

Запущен Jul 27, 2024 с Cape Canaveral Space Force Station

Loading…

Ближайшие Пролёты (ближайшие 24 часа)

TLE

СвежийSource: CelesTrak SupGP

Эпоха: Sep 14, 2026, 21:13 UTC

1 60262C 24131H   26257.88451389  .00044260  00000+0  14234-2 0  2573
2 60262  53.1581 252.0464 0001249  93.8719  50.5510 15.31677500    19

Отслеживайте STARLINK-32163 в реальном времени с AllMySat

Download on the App Store